カタログに戻る

STARLINK-36173

運用中通信VLEO
NORAD 67210·PAYLOAD·🇺🇸 United States

打ち上げ Dec 17, 2025 から Vandenberg Space Force Base

Loading…

次のパス (今後24時間)

TLE

最新Source: CelesTrak SupGP

元期: Sep 15, 2026, 02:32 UTC

1 67210C 25304U   26258.10604167 -.00049747  00000+0 -41689-2 0  2588
2 67210  70.0017  56.8760 0002498 269.4179 223.4607 14.98357736    14

AllMySatでSTARLINK-36173をリアルタイム追跡

Download on the App Store